Flag for Lithuania Weather past 2 weeks in Vilnius, Lithuania

Now
64 °F

Broken clouds.


Feels Like: 64 °F
Forecast: 46 / 71 °F
Wind: 12 mph from Southwest

Location: Vilnius Airport

Current Time: Apr 26, 2015 at 1:33:36 PM

Latest Report: Apr 26, 2015 at 12:50 PM


Visibility: N/A

Pressure: 29.68 "Hg

Humidity: 49%

Dew point: 45 °F

Location of VilniusLocation

Historic Weather in Vilnius — Graph

°F

Vilnius temperature yesterday

Maximum temperature yesterday: 66 °F (at 2:50 PM)
Minimum temperature yesterday: 37 °F (at 5:50 AM)
Average temperature yesterday: 53 °F

Past Weeks' High & Low Weather Summary

 TemperatureHumidityPressure
High66 °F (Apr 11, 3:50 PM)100% (Apr 15, 2:20 AM)30.18 "Hg (Apr 15, 2:20 AM)
Low32 °F (Apr 15, 2:20 AM)25% (Apr 14, 4:50 PM)29.36 "Hg (Apr 16, 4:50 AM)
Average45 °F70%29.83 "Hg
* Reported Apr 11 12:20 PM — Apr 26 12:20 PM, Vilnius, Weather by CustomWeather, © 2015

Note: Actual official high and low records may vary slightly from our data, if they occured in-between our weather recording intervals... More about our weather records

Advertising

Vilnius weather history for previous 24 hours

 ConditionsComfort  
Time TempWeatherWind HumidityBarometerVisibility
12:20 PM
Sun, Apr 26
61 °FMore clouds than sun.10 mph59%29.68 "HgN/A
11:50 AM59 °FMore clouds than sun.10 mph63%29.68 "HgN/A
11:20 AM57 °FMore clouds than sun.12 mph67%29.68 "HgN/A
10:50 AM55 °FMore clouds than sun.8 mph72%29.68 "HgN/A
10:20 AM55 °FSunny.9 mph67%29.71 "Hg10 mi
9:50 AM55 °FSunny.10 mph72%29.71 "Hg10 mi
9:20 AM55 °FSunny.10 mph72%29.68 "Hg10 mi
8:50 AM55 °FSunny.10 mph67%29.71 "Hg10 mi
8:20 AM54 °FSunny.10 mph72%29.71 "Hg10 mi
7:50 AM54 °FSunny.9 mph72%29.71 "Hg10 mi
7:20 AM52 °FSunny.9 mph77%29.71 "Hg10 mi
6:50 AM50 °FClear.8 mph76%29.71 "Hg10 mi
6:20 AM52 °FClear.8 mph72%29.71 "Hg10 mi
5:50 AM52 °FClear.9 mph72%29.71 "Hg10 mi
5:20 AM50 °FClear.8 mph71%29.74 "Hg10 mi
4:50 AM50 °FClear.7 mph71%29.74 "Hg10 mi
4:20 AM50 °FClear.7 mph71%29.74 "Hg10 mi
3:50 AM52 °FClear.8 mph67%29.74 "Hg10 mi
3:20 AM50 °FClear.8 mph67%29.77 "Hg10 mi
2:50 AM50 °FClear.8 mph67%29.77 "Hg10 mi
2:20 AM52 °FClear.7 mph62%29.77 "Hg10 mi
1:50 AM52 °FClear.6 mph62%29.77 "Hg10 mi
1:20 AM52 °FClear.5 mph62%29.80 "Hg10 mi
12:20 AM54 °FClear.5 mph58%29.80 "Hg10 mi
11:50 PM
Sat, Apr 25
52 °FClear.6 mph62%29.80 "Hg10 mi
11:20 PM52 °FClear.3 mph67%29.80 "Hg10 mi
10:50 PM52 °FClear.5 mph67%29.80 "Hg10 mi
10:20 PM52 °FClear.2 mph67%29.80 "Hg10 mi
9:50 PM54 °FClear.5 mph63%29.80 "Hg10 mi
9:20 PM55 °FSunny.3 mph59%29.80 "Hg10 mi
8:50 PM61 °FSunny.6 mph48%29.80 "Hg10 mi
8:20 PM61 °FSunny.5 mph48%29.80 "Hg10 mi
7:50 PM63 °FPartly sunny.5 mph45%29.80 "HgN/A
7:20 PM63 °FPartly sunny.6 mph49%29.80 "HgN/A
6:50 PM64 °FPartly sunny.6 mph43%29.80 "HgN/A
6:20 PM66 °FBroken clouds.6 mph40%29.83 "HgN/A
5:50 PM64 °FBroken clouds.6 mph43%29.83 "HgN/A
5:20 PM64 °FScattered showers. Broken clouds.10 mph43%29.83 "HgN/A
4:50 PM66 °FScattered showers. Broken clouds.12 mph37%29.83 "HgN/A
4:20 PM64 °FScattered showers. Broken clouds.10 mph40%29.83 "HgN/A
3:56 PM64 °FBroken clouds.9 mph40%29.83 "HgN/A
3:20 PM64 °FBroken clouds.12 mph40%29.86 "HgN/A
2:50 PM66 °FBroken clouds.12 mph37%29.86 "HgN/A
2:20 PM64 °FBroken clouds.8 mph46%29.86 "HgN/A
1:50 PM64 °FBroken clouds.14 mph43%29.86 "HgN/A
1:20 PM64 °FBroken clouds.14 mph49%29.89 "HgN/A
Weather by CustomWeather, © 2015

See weather overviewHow to use our weather pages